[[{"header":{"parameterUnit":"m.s-1","parameterCategory":1,"la1":30.2991,"la2":30.254,"lo1":-89.0895,"lo2":-89.0444,"dy":0.0017,"dx":0.0017,"nx":28,"ny":28,"refTime":"2025-01-13T09:00:00:Z","depth":0,"parameterNumber":2,"parameterNumberName":"U-component_of_WINDS"},"data":[0,0,0,0,0,0,0,0,0,0,0,0,0,0,0,0,0,0,0,0,0,0,0,0,0,0,0,0,0,0,0,0,0,0,0,0,0,0,0,0,0,0,0,0,0,0,0,0,0,0,0,0,0,0,0,0,0,0,-3.0837,-3.0838,0,-3.0898,-3.0899,-3.09,-3.079,-3.0786,-3.0782,-3.0779,-3.0847,-3.0852,-3.0857,0,0,0,0,0,0,0,0,0,0,0,0,0,-3.0629,-3.0634,-3.0837,-3.0838,-3.0839,-3.0898,-3.0899,-3.09,-3.0791,-3.0786,-3.0782,-3.0777,-3.0845,-3.0851,-3.0858,0,0,0,0,0,0,0,0,0,0,0,0,0,-3.0708,-3.0635,-3.0837,-3.0791,-3.0788,-3.0898,-3.0899,-3.09,-3.0791,-3.0786,-3.078,-3.0775,-3.0843,-3.0851,-3.0858,-3.1018,0,0,-3.0882,-3.0886,0,0,0,0,0,0,0,0,-3.0704,-3.0716,-3.0797,-3.0795,-3.0791,-3.0831,-3.085,-3.094,-3.0793,-3.079,-3.0779,-3.0772,-3.0846,-3.0854,-3.0877,-3.1021,-3.1024,-3.0883,-3.0888,-3.0891,-3.0894,0,0,0,0,0,0,0,-3.0698,-3.0713,-3.0862,-3.0799,-3.0795,-3.0769,-3.0774,-3.0867,-3.0849,-3.079,-3.0782,-3.0791,-3.0843,-3.087,-3.0878,-3.1025,-3.0883,-3.089,-3.0895,-3.0898,-3.1303,-3.1309,0,0,0,0,0,0,-3.0698,-3.0709,-3.086,-3.0863,-3.0733,-3.0777,-3.0783,-3.0824,-3.0847,-3.0846,-3.0795,-3.0785,-3.0859,-3.0869,-3.088,-3.107,-3.0891,-3.0899,-3.0903,-3.1297,-3.1305,-3.1311,0,0,0,0,0,0,-3.0694,-3.0713,-3.0857,-3.0784,-3.08,-3.0786,-3.0833,-3.0828,-3.0854,-3.0851,-3.0848,-3.0826,-3.0855,-3.0869,-3.0984,-3.107,-3.0902,-3.0909,-3.129,-3.13,-3.1308,-3.145,0,0,0,0,0,0,-3.0689,-3.0712,-3.0772,-3.0786,-3.0805,-3.096,-3.0839,-3.0833,-3.0867,-3.0855,-3.0879,-3.0878,-3.0852,-3.0973,-3.0992,-3.1078,-3.0916,-3.1283,-3.1294,-3.1305,-3.1437,-3.1462,-3.1484,0,0,0,0,0,-3.0682,-3.081,-3.0775,-3.0794,-3.0879,-3.0965,-3.0976,-3.0942,-3.0875,-3.0936,-3.0933,-3.0877,-3.1057,-3.0986,-3.1006,-3.1096,-3.1277,-3.1291,-3.1304,-3.1427,-3.1458,-3.1483,0,0,0,0,0,0,-3.0809,-3.0811,-3.0773,-3.091,-3.0938,-3.0946,-3.1022,-3.0976,-3.1025,-3.1012,-3.0969,-3.0975,-3.11,-3.1109,-3.1029,-3.1252,-3.1156,-3.1174,-3.1242,-3.1271,-3.1294,-3.1291,-3.0922,0,0,0,0,0,-3.0852,-3.092,-3.0919,-3.104,-3.1056,-3.1037,-3.1073,-3.1044,-3.1073,-3.1085,-3.1091,-3.1122,-3.1185,-3.1228,-3.1286,-3.1437,-3.1441,-3.1508,-3.1532,-3.1551,-3.1568,-3.165,-3.168,-3.1356,-3.1356,-3.1356,0,0,-3.0944,-3.0954,-3.1,-3.1066,-3.1085,-3.1158,-3.1048,-3.113,-3.1184,-3.1097,-3.1207,-3.1212,-3.1244,-3.1378,-3.1437,-3.1389,-3.1658,-3.1568,-3.1583,-3.1591,-3.1667,-3.1697,-3.1725,-3.1365,-3.1364,-3.1362,0,0,-3.1149,-3.1162,-3.1265,-3.1285,-3.1313,-3.1299,-3.1324,-3.1339,-3.1339,-3.1447,-3.1384,-3.1448,-3.1558,-3.1583,-3.161,-3.1822,-3.1772,-3.1842,-3.1965,-3.2045,-3.2071,-3.2093,-3.2171,-3.2199,-3.1859,-3.1859,-3.1859,0,-3.1261,-3.1366,-3.1324,-3.141,-3.1442,-3.1364,-3.1468,-3.149,-3.1537,-3.1561,-3.1506,-3.1642,-3.1657,-3.1796,-3.1848,-3.1872,-3.19,-3.1841,-3.207,-3.2092,-3.2112,-3.2186,-3.2215,-3.1867,-3.1866,-3.1866,-3.1865,0,-3.1503,-3.1577,-3.1657,-3.1702,-3.1742,-3.1837,-3.181,-3.1856,-3.1823,-3.1815,-3.1927,-3.1942,-3.2002,-3.2032,-3.2002,-3.2167,-3.2137,-3.2076,-3.198,-3.2153,-3.2221,-3.2249,-3.188,-3.1876,-3.1874,-3.1872,0,0,-3.1793,-3.1811,-3.1842,-3.1861,-3.1886,-3.1943,-3.2034,-3.2091,-3.2132,-3.2166,-3.2243,-3.2337,-3.228,-3.2311,-3.2282,-3.2352,-3.2521,-3.2283,-3.2283,-3.2329,-3.2706,-3.2754,-3.2787,-3.2486,-3.2491,-3.2496,-3.2704,0,-3.1999,-3.2155,-3.2118,-3.2273,-3.2342,-3.2268,-3.2347,-3.2372,-3.2366,-3.2424,-3.2418,-3.2486,-3.2406,-3.2424,-3.2489,-3.2487,-3.2597,-3.2471,-3.256,-3.2564,-3.2558,-3.2822,-3.2873,-3.307,-3.2731,-3.2735,-3.2738,0,-3.226,-3.2302,-3.2464,-3.2476,-3.2503,-3.2576,-3.2625,-3.2681,-3.2707,-3.2697,-3.2731,-3.2688,-3.278,-3.2679,-3.2805,-3.2721,-3.2754,-3.2758,-3.2765,-3.2775,-3.2664,-3.2842,-3.3131,-3.3162,-3.278,-3.2776,-3.2774,0,-3.2459,-3.2556,-3.2665,-3.2683,-3.27,-3.2753,-3.2762,-3.2782,-3.2819,-3.2861,-3.2885,-3.2938,-3.2968,-3.3011,-3.2984,-3.2913,-3.3116,-3.3013,-3.3113,-3.3114,-3.3162,-3.316,-3.3464,-3.3179,-3.3179,-3.3178,-3.3177,0,-3.2694,-3.2796,-3.2754,-3.2822,-3.2934,-3.2891,-3.3004,-3.3005,-3.3023,-3.309,-3.3028,-3.3093,-3.3052,-3.3114,-3.3093,-3.3202,-3.3215,-3.3212,-3.3206,-3.322,-3.3221,-3.3244,-3.3231,-3.3186,-3.3184,-3.3183,-3.3181,0,-3.2937,-3.2912,-3.3027,-3.3032,-3.3035,-3.3119,-3.3124,-3.3187,-3.3175,-3.3261,-3.3279,-3.3262,-3.3331,-3.3307,-3.3382,-3.3367,-3.3507,-3.3481,-3.3498,-3.3493,-3.3595,-3.3587,-3.3927,-3.397,-3.3655,-3.3658,-3.3661,0,-3.309,-3.3167,-3.3179,-3.3219,-3.3232,-3.3297,-3.3333,-3.3293,-3.3333,-3.3367,-3.3427,-3.349,-3.3539,-3.3654,-3.3649,-3.3706,-3.3683,-3.3798,-3.3692,-3.3703,-3.3688,-3.3685,-3.3693,-3.3821,-3.3825,-3.3827,-3.383,0,-3.3365,-3.3349,-3.3402,-3.3452,-3.3496,-3.3533,-3.3565,-3.3602,-3.3563,-3.3611,-3.368,-3.3718,-3.3793,-3.3858,-3.3908,-3.3919,-3.387,-3.3863,-3.3889,-3.3906,-3.3913,-3.3913,-3.3559,-3.3856,-3.3853,-3.3852,-3.385,-3.3849,-3.357,-3.3635,-3.3653,-3.3715,-3.3734,-3.3765,-3.3825,-3.3819,-3.3875,-3.3932,-3.3905,-3.3985,-3.4008,-3.4071,-3.4089,-3.4152,-3.4108,-3.4146,-3.4156,-3.4167,-3.4181,-3.39,-3.4161,-3.416,-3.4159,-3.4158,-3.4158,0,-3.3844,-3.3851,-3.3908,-3.3954,-3.4003,-3.3947,-3.398,-3.4025,-3.4096,-3.412,-3.4169,-3.4248,-3.431,-3.4309,-3.4366,-3.4417,-3.4396,-3.4434,-3.4431,-3.4435,-3.4216,-3.4189,-3.445,-3.445,-3.445,-3.445,-3.445,-3.445,-3.3993,-3.41,-3.4085,-3.4201,-3.4208,-3.4285,-3.4308,-3.4337,-3.4356,-3.4447,-3.4498,-3.4495,-3.451,-3.4567,-3.4622,-3.4619,-3.4645,-3.4692,-3.4682,-3.4479,-3.445,-3.4423,-3.4397,-3.4697,-3.4698,-3.4896,-3.4897,-3.4899]},{"header":{"parameterUnit":"m.s-1","parameterCategory":1,"la1":30.2991,"la2":30.254,"lo1":-89.0895,"lo2":-89.0444,"dy":0.0017,"dx":0.0017,"nx":28,"ny":28,"refTime":"2025-01-13T09:00:00:Z","depth":0,"parameterNumber":3,"parameterNumberName":"V-component_of_WINDS"},"data":[0,0,0,0,0,0,0,0,0,0,0,0,0,0,0,0,0,0,0,0,0,0,0,0,0,0,0,0,0,0,0,0,0,0,0,0,0,0,0,0,0,0,0,0,0,0,0,0,0,0,0,0,0,0,0,0,0,0,-3.6522,-3.6522,0,-3.6579,-3.658,-3.6581,-3.6537,-3.6535,-3.6533,-3.6531,-3.6588,-3.6591,-3.6594,0,0,0,0,0,0,0,0,0,0,0,0,0,-3.637,-3.6373,-3.6522,-3.6523,-3.6523,-3.6579,-3.658,-3.6581,-3.6537,-3.6535,-3.6533,-3.653,-3.6587,-3.659,-3.6594,0,0,0,0,0,0,0,0,0,0,0,0,0,-3.6433,-3.6374,-3.6522,-3.6508,-3.6508,-3.6579,-3.658,-3.6581,-3.6538,-3.6535,-3.6532,-3.6529,-3.6585,-3.659,-3.6595,-3.6682,0,0,-3.661,-3.6612,0,0,0,0,0,0,0,0,-3.6429,-3.6438,-3.6509,-3.6509,-3.6509,-3.6548,-3.6547,-3.6615,-3.6538,-3.6526,-3.6531,-3.6528,-3.6577,-3.6582,-3.6599,-3.6685,-3.6687,-3.661,-3.6613,-3.6615,-3.6617,0,0,0,0,0,0,0,-3.6425,-3.6435,-3.6544,-3.6511,-3.651,-3.6498,-3.6504,-3.656,-3.6567,-3.6527,-3.6524,-3.6532,-3.6576,-3.6594,-3.66,-3.6688,-3.661,-3.6615,-3.6618,-3.662,-3.6846,-3.6849,0,0,0,0,0,0,-3.6422,-3.6432,-3.6543,-3.6546,-3.6461,-3.6503,-3.651,-3.6538,-3.6566,-3.6567,-3.6534,-3.6529,-3.6587,-3.6594,-3.6602,-3.6704,-3.6615,-3.662,-3.6623,-3.6843,-3.6846,-3.685,0,0,0,0,0,0,-3.6419,-3.6433,-3.654,-3.6488,-3.6501,-3.6509,-3.6541,-3.6541,-3.6559,-3.6571,-3.6572,-3.6552,-3.6585,-3.6595,-3.6662,-3.6706,-3.6622,-3.6627,-3.6839,-3.6844,-3.6848,-3.6911,0,0,0,0,0,0,-3.6415,-3.6432,-3.6466,-3.649,-3.6504,-3.6601,-3.6544,-3.6544,-3.6568,-3.6563,-3.6588,-3.659,-3.6584,-3.6655,-3.6667,-3.6711,-3.663,-3.6835,-3.6841,-3.6847,-3.6905,-3.6917,-3.6928,0,0,0,0,0,-3.641,-3.6481,-3.6468,-3.6482,-3.6547,-3.6604,-3.6612,-3.6605,-3.6572,-3.6606,-3.6613,-3.6589,-3.6699,-3.6662,-3.6675,-3.6722,-3.6832,-3.6839,-3.6846,-3.69,-3.6915,-3.6927,0,0,0,0,0,0,-3.6462,-3.6484,-3.647,-3.6551,-3.6576,-3.6596,-3.6639,-3.6621,-3.6655,-3.6648,-3.6637,-3.6643,-3.6714,-3.6724,-3.6683,-3.6806,-3.676,-3.677,-3.6797,-3.6811,-3.6822,-3.6818,-3.6635,0,0,0,0,0,-3.6483,-3.6528,-3.6545,-3.6615,-3.6628,-3.6631,-3.6656,-3.6648,-3.6673,-3.6683,-3.6695,-3.6719,-3.6759,-3.6786,-3.6823,-3.6906,-3.691,-3.6944,-3.6956,-3.6965,-3.6973,-3.7016,-3.7031,-3.6872,-3.6872,-3.6872,0,0,-3.6527,-3.6545,-3.6574,-3.6626,-3.6644,-3.669,-3.6641,-3.6691,-3.6724,-3.669,-3.6754,-3.6764,-3.679,-3.6865,-3.6899,-3.6876,-3.7018,-3.6974,-3.6981,-3.6984,-3.7025,-3.704,-3.7053,-3.6877,-3.6876,-3.6875,0,0,-3.6631,-3.6649,-3.6709,-3.6728,-3.6757,-3.6758,-3.6772,-3.6795,-3.68,-3.6865,-3.6839,-3.6878,-3.6948,-3.6967,-3.6986,-3.7094,-3.7073,-3.7107,-3.7165,-3.7208,-3.722,-3.7231,-3.7269,-3.7282,-3.7115,-3.7115,-3.7115,0,-3.6681,-3.675,-3.6742,-3.6794,-3.6817,-3.6788,-3.6848,-3.6867,-3.6906,-3.6921,-3.6895,-3.6981,-3.6997,-3.7075,-3.7102,-3.7118,-3.7133,-3.7104,-3.7219,-3.723,-3.724,-3.7276,-3.729,-3.7119,-3.7119,-3.7118,-3.7118,0,-3.6811,-3.6859,-3.6903,-3.6942,-3.697,-3.7025,-3.7024,-3.7053,-3.7042,-3.7046,-3.711,-3.7128,-3.7168,-3.7186,-3.7176,-3.7263,-3.7248,-3.7221,-3.7174,-3.7259,-3.7293,-3.7306,-3.7125,-3.7123,-3.7122,-3.7121,0,0,-3.6949,-3.6982,-3.6998,-3.7015,-3.7043,-3.7079,-3.7133,-3.7172,-3.7197,-3.7224,-3.7267,-3.7326,-3.7301,-3.7322,-3.7314,-3.7351,-3.7434,-3.732,-3.732,-3.7339,-3.7529,-3.7549,-3.7565,-3.742,-3.7423,-3.7425,-3.7527,0,-3.7053,-3.7148,-3.7141,-3.7229,-3.7272,-3.7245,-3.7291,-3.7313,-3.7317,-3.7353,-3.7357,-3.7399,-3.7363,-3.7376,-3.7411,-3.7417,-3.7472,-3.741,-3.7459,-3.7461,-3.7453,-3.7582,-3.7604,-3.7699,-3.754,-3.7542,-3.7543,0,-3.7187,-3.722,-3.7312,-3.7333,-3.7351,-3.7393,-3.7427,-3.7463,-3.7486,-3.7486,-3.751,-3.7495,-3.7547,-3.7499,-3.757,-3.7527,-3.7547,-3.7553,-3.7556,-3.756,-3.7507,-3.7589,-3.7729,-3.7743,-3.7564,-3.7562,-3.7561,0,-3.7278,-3.7344,-3.7408,-3.7423,-3.7449,-3.7479,-3.7491,-3.7511,-3.7535,-3.7565,-3.7579,-3.7615,-3.7634,-3.7661,-3.7655,-3.7622,-3.7727,-3.7679,-3.7728,-3.7728,-3.7751,-3.7749,-3.7895,-3.7765,-3.7765,-3.7765,-3.7764,0,-3.7394,-3.7452,-3.7449,-3.7488,-3.7551,-3.7542,-3.7604,-3.7612,-3.763,-3.7669,-3.7647,-3.7684,-3.7675,-3.7711,-3.7707,-3.7765,-3.7774,-3.7775,-3.7773,-3.7777,-3.7776,-3.7789,-3.7782,-3.7768,-3.7767,-3.7767,-3.7766,0,-3.7506,-3.7507,-3.7574,-3.7593,-3.7599,-3.7644,-3.7659,-3.7695,-3.7698,-3.7747,-3.7758,-3.7761,-3.7802,-3.78,-3.7846,-3.7843,-3.7915,-3.7905,-3.7907,-3.7905,-3.7953,-3.7948,-3.8111,-3.8132,-3.7989,-3.799,-3.7992,0,-3.758,-3.7624,-3.7647,-3.7672,-3.7686,-3.7727,-3.775,-3.7742,-3.7768,-3.7796,-3.7829,-3.7868,-3.7899,-3.7965,-3.7971,-3.8006,-3.7997,-3.8051,-3.8002,-3.8003,-3.7996,-3.7993,-3.7997,-3.8061,-3.8063,-3.8064,-3.8065,0,-3.7711,-3.7709,-3.7745,-3.778,-3.7809,-3.7837,-3.7862,-3.7883,-3.7877,-3.7907,-3.7949,-3.7973,-3.802,-3.8058,-3.8091,-3.8102,-3.8082,-3.8081,-3.8093,-3.8097,-3.8096,-3.8096,-3.7933,-3.8077,-3.8076,-3.8075,-3.8074,-3.8074,-3.7806,-3.7843,-3.7864,-3.7904,-3.7922,-3.7946,-3.798,-3.7986,-3.8022,-3.806,-3.8052,-3.8099,-3.8119,-3.8161,-3.8175,-3.8211,-3.8191,-3.821,-3.8214,-3.8219,-3.8224,-3.8091,-3.8217,-3.8216,-3.8216,-3.8216,-3.8215,0,-3.7935,-3.7947,-3.7984,-3.8019,-3.805,-3.803,-3.8056,-3.8083,-3.8125,-3.8145,-3.8176,-3.8223,-3.826,-3.8269,-3.8304,-3.833,-3.8322,-3.834,-3.8337,-3.834,-3.824,-3.8225,-3.8346,-3.8346,-3.8346,-3.8346,-3.8345,-3.8345,-3.8005,-3.8066,-3.8066,-3.8135,-3.8146,-3.8193,-3.8209,-3.823,-3.8246,-3.83,-3.8331,-3.8336,-3.8352,-3.8387,-3.842,-3.8421,-3.8434,-3.8455,-3.8453,-3.836,-3.8347,-3.8334,-3.832,-3.8459,-3.8459,-3.8549,-3.855,-3.8551]}]]